Year,Month,Day,Hour,Minute,Value (Times are PST for temperature in C)
2011,04,25,08,33,8.40
2011,04,25,08,34,8.50
2011,04,25,08,35,8.50
2011,04,25,08,36,8.50
2011,04,25,08,37,8.60
2011,04,25,08,38,8.60
2011,04,25,08,39,8.60
2011,04,25,08,40,8.70
2011,04,25,08,41,8.70
2011,04,25,08,42,8.70
2011,04,25,08,43,8.80
2011,04,25,08,44,8.80
2011,04,25,08,45,8.80
2011,04,25,08,46,8.90
2011,04,25,08,47,8.90
2011,04,25,08,48,8.90
2011,04,25,08,49,8.90
2011,04,25,08,50,8.90
2011,04,25,08,51,9.00
2011,04,25,08,52,9.00
2011,04,25,08,53,9.10
2011,04,25,08,54,9.10
2011,04,25,08,55,9.10
2011,04,25,08,56,9.10
2011,04,25,08,57,9.10
2011,04,25,08,58,9.10
2011,04,25,08,59,9.10
2011,04,25,09,00,9.20
2011,04,25,09,01,9.20
2011,04,25,09,02,9.20
2011,04,25,09,03,9.20
2011,04,25,09,04,9.20
2011,04,25,09,05,9.20
2011,04,25,09,06,9.30
2011,04,25,09,07,9.30
2011,04,25,09,08,9.30
2011,04,25,09,09,9.40
2011,04,25,09,10,9.40
2011,04,25,09,11,9.50
2011,04,25,09,12,9.60
2011,04,25,09,13,9.60
2011,04,25,09,14,9.60
2011,04,25,09,15,9.60
2011,04,25,09,16,9.60
2011,04,25,09,17,9.60
2011,04,25,09,18,9.60
2011,04,25,09,19,9.60
2011,04,25,09,20,9.60
2011,04,25,09,21,9.60
2011,04,25,09,22,9.60
2011,04,25,09,23,9.60
2011,04,25,09,24,9.60
2011,04,25,09,25,9.60
2011,04,25,09,26,9.60
2011,04,25,09,27,9.60
2011,04,25,09,28,9.60
2011,04,25,09,29,9.60
2011,04,25,09,30,9.60
2011,04,25,09,31,9.60
2011,04,25,09,32,9.60
2011,04,25,09,33,9.60
2011,04,25,09,34,9.60
2011,04,25,09,35,9.60
2011,04,25,09,36,9.60
2011,04,25,09,37,9.60
2011,04,25,09,38,9.60
2011,04,25,09,39,9.60
2011,04,25,09,40,9.60
2011,04,25,09,41,9.60
2011,04,25,09,42,9.60
2011,04,25,09,43,9.60
2011,04,25,09,44,9.60
2011,04,25,09,45,9.60
2011,04,25,09,46,9.60
2011,04,25,09,47,9.60
2011,04,25,09,48,9.60
2011,04,25,09,49,9.60
2011,04,25,09,50,9.60
2011,04,25,09,51,9.60
2011,04,25,09,52,9.60
2011,04,25,09,53,9.60
2011,04,25,09,54,9.60
2011,04,25,09,55,9.60
2011,04,25,09,56,9.60
2011,04,25,09,57,9.60
2011,04,25,09,58,9.60
2011,04,25,09,59,9.60
2011,04,25,10,00,9.60
2011,04,25,10,01,9.60
2011,04,25,10,02,9.60
2011,04,25,10,03,9.60
2011,04,25,10,04,9.60
2011,04,25,10,05,9.60
2011,04,25,10,06,9.60
2011,04,25,10,07,9.60
2011,04,25,10,08,9.50
2011,04,25,10,09,9.50
2011,04,25,10,10,9.40
2011,04,25,10,11,9.40
2011,04,25,10,12,9.30
2011,04,25,10,13,9.30
2011,04,25,10,14,9.30
2011,04,25,10,15,9.40
2011,04,25,10,16,9.40
2011,04,25,10,17,9.40
2011,04,25,10,18,9.40
2011,04,25,10,19,9.40
2011,04,25,10,20,9.40
2011,04,25,10,21,9.40
2011,04,25,10,22,9.40
2011,04,25,10,23,9.40
2011,04,25,10,24,9.40
2011,04,25,10,25,9.50
2011,04,25,10,26,9.50
2011,04,25,10,27,9.50
2011,04,25,10,28,9.60
2011,04,25,10,29,9.60
2011,04,25,10,30,9.60
2011,04,25,10,31,9.60
2011,04,25,10,32,9.60
2011,04,25,10,33,9.50
2011,04,25,10,34,9.50
2011,04,25,10,35,9.50
2011,04,25,10,36,9.50
2011,04,25,10,37,9.60
2011,04,25,10,38,9.60
2011,04,25,10,39,9.60
2011,04,25,10,40,9.60
2011,04,25,10,41,9.60
2011,04,25,10,42,9.60
2011,04,25,10,43,9.60
2011,04,25,10,44,9.60
2011,04,25,10,45,9.60
2011,04,25,10,46,9.60
2011,04,25,10,47,9.60
2011,04,25,10,48,9.60
2011,04,25,10,49,9.60
2011,04,25,10,50,9.60
2011,04,25,10,51,9.60
2011,04,25,10,52,9.50
2011,04,25,10,53,9.50
2011,04,25,10,54,9.40
2011,04,25,10,55,9.40
2011,04,25,10,56,9.40
2011,04,25,10,57,9.40
2011,04,25,10,58,9.50
2011,04,25,10,59,9.50
2011,04,25,11,00,9.60
2011,04,25,11,01,9.60
2011,04,25,11,02,9.60
2011,04,25,11,03,9.60
2011,04,25,11,04,9.60
2011,04,25,11,05,9.60
2011,04,25,11,06,9.70
2011,04,25,11,07,9.70
2011,04,25,11,08,9.70
2011,04,25,11,09,9.80
2011,04,25,11,10,9.80
2011,04,25,11,11,9.90
2011,04,25,11,12,9.90
2011,04,25,11,13,9.90
2011,04,25,11,14,9.90
2011,04,25,11,15,9.90
2011,04,25,11,16,10.00
2011,04,25,11,17,10.00
2011,04,25,11,18,10.00
2011,04,25,11,19,10.00
2011,04,25,11,20,10.00
2011,04,25,11,21,10.10
2011,04,25,11,22,10.00
2011,04,25,11,23,10.00
2011,04,25,11,24,10.00
2011,04,25,11,25,10.00
2011,04,25,11,26,10.00
2011,04,25,11,27,10.00
2011,04,25,11,28,10.00
2011,04,25,11,29,10.00
2011,04,25,11,30,10.00
2011,04,25,11,31,10.00
2011,04,25,11,32,10.00
2011,04,25,11,33,10.10
2011,04,25,11,34,10.10
2011,04,25,11,35,10.10
2011,04,25,11,36,10.10
2011,04,25,11,37,10.10
2011,04,25,11,38,10.10
2011,04,25,11,39,10.10
2011,04,25,11,40,10.10
2011,04,25,11,41,10.00
2011,04,25,11,42,10.00
2011,04,25,11,43,10.00
2011,04,25,11,44,10.00
2011,04,25,11,45,10.00
2011,04,25,11,46,9.90
2011,04,25,11,47,9.90
2011,04,25,11,48,9.80
2011,04,25,11,49,9.80
2011,04,25,11,50,9.80
2011,04,25,11,51,9.80
2011,04,25,11,52,9.80
2011,04,25,11,53,9.80
2011,04,25,11,54,9.80
2011,04,25,11,55,9.80
2011,04,25,11,56,9.80
2011,04,25,11,57,9.70
2011,04,25,11,58,9.70
2011,04,25,11,59,9.60
2011,04,25,12,00,9.60
2011,04,25,12,01,9.60
2011,04,25,12,02,9.60
2011,04,25,12,03,9.60
2011,04,25,12,04,9.60
2011,04,25,12,05,9.60
2011,04,25,12,06,9.60
2011,04,25,12,07,9.50
2011,04,25,12,08,9.50
2011,04,25,12,09,9.40
2011,04,25,12,10,9.40
2011,04,25,12,11,9.40
2011,04,25,12,12,9.40
2011,04,25,12,13,9.40
2011,04,25,12,14,9.40
2011,04,25,12,15,9.40
2011,04,25,12,16,9.50
2011,04,25,12,17,9.50
2011,04,25,12,18,9.50
2011,04,25,12,19,9.60
2011,04,25,12,20,9.60
2011,04,25,12,21,9.60
2011,04,25,12,22,9.60
2011,04,25,12,23,9.60
2011,04,25,12,24,9.60
2011,04,25,12,25,9.60
2011,04,25,12,26,9.70
2011,04,25,12,27,9.70
2011,04,25,12,28,9.70
2011,04,25,12,29,9.70
2011,04,25,12,30,9.80
2011,04,25,12,31,9.80
2011,04,25,12,32,9.80
2011,04,25,12,33,9.80
2011,04,25,12,34,9.70
2011,04,25,12,35,9.70
2011,04,25,12,36,9.70
2011,04,25,12,37,9.70
2011,04,25,12,38,9.70
2011,04,25,12,39,9.70
2011,04,25,12,40,9.70
2011,04,25,12,41,9.70
2011,04,25,12,42,9.70
2011,04,25,12,43,9.70
2011,04,25,12,44,9.70
2011,04,25,12,45,9.80
2011,04,25,12,46,9.80
2011,04,25,12,47,9.80
2011,04,25,12,48,9.80
2011,04,25,12,49,9.80
2011,04,25,12,50,9.80
2011,04,25,12,51,9.80
2011,04,25,12,52,9.80
2011,04,25,12,53,9.90
2011,04,25,12,54,9.90
2011,04,25,12,55,9.80
2011,04,25,12,56,9.80
2011,04,25,12,57,9.80
2011,04,25,12,58,9.80
2011,04,25,12,59,9.70
2011,04,25,13,00,9.70
2011,04,25,13,01,9.70
2011,04,25,13,02,9.70
2011,04,25,13,03,9.70
2011,04,25,13,04,9.70
2011,04,25,13,05,9.70
2011,04,25,13,06,9.70
2011,04,25,13,07,9.70
2011,04,25,13,08,9.70
2011,04,25,13,09,9.70
2011,04,25,13,10,9.70
2011,04,25,13,11,9.80
2011,04,25,13,12,9.80
2011,04,25,13,13,9.80
2011,04,25,13,14,9.80
2011,04,25,13,15,9.80
2011,04,25,13,16,9.80
2011,04,25,13,17,9.90
2011,04,25,13,18,9.90
2011,04,25,13,19,10.00
2011,04,25,13,20,10.00
2011,04,25,13,21,10.00
2011,04,25,13,22,10.00
2011,04,25,13,23,9.90
2011,04,25,13,24,9.90
2011,04,25,13,25,9.90
2011,04,25,13,26,9.90
2011,04,25,13,27,9.90
2011,04,25,13,28,9.80
2011,04,25,13,29,9.80
2011,04,25,13,30,9.80
2011,04,25,13,31,9.80
2011,04,25,13,32,9.70
2011,04,25,13,33,9.70
2011,04,25,13,34,9.70
2011,04,25,13,35,9.70
2011,04,25,13,36,9.60
2011,04,25,13,37,9.60
2011,04,25,13,38,9.60
2011,04,25,13,39,9.60
2011,04,25,13,40,9.60
2011,04,25,13,41,9.60
2011,04,25,13,42,9.60
2011,04,25,13,43,9.60
2011,04,25,13,44,9.60
2011,04,25,13,45,9.60
2011,04,25,13,46,9.60
2011,04,25,13,47,9.60
2011,04,25,13,48,9.60
2011,04,25,13,49,9.60
2011,04,25,13,50,9.60
2011,04,25,13,51,9.50
2011,04,25,13,52,9.50
2011,04,25,13,53,9.40
2011,04,25,13,54,9.40
2011,04,25,13,55,9.40
2011,04,25,13,56,9.40
2011,04,25,13,57,9.50
2011,04,25,13,58,9.50
2011,04,25,13,59,9.50
2011,04,25,14,00,9.50
2011,04,25,14,01,9.60
2011,04,25,14,02,9.60
2011,04,25,14,03,9.60
2011,04,25,14,04,9.60
2011,04,25,14,05,9.60
2011,04,25,14,06,9.60
2011,04,25,14,07,9.60
2011,04,25,14,08,9.60
2011,04,25,14,09,9.70
2011,04,25,14,10,9.70
2011,04,25,14,11,9.70
2011,04,25,14,12,9.70
2011,04,25,14,13,9.70
2011,04,25,14,14,9.80
2011,04,25,14,15,9.80
2011,04,25,14,16,9.80
2011,04,25,14,17,9.80
2011,04,25,14,18,9.80
2011,04,25,14,19,9.80
2011,04,25,14,20,9.80
2011,04,25,14,21,9.80
2011,04,25,14,22,9.80
2011,04,25,14,23,9.80
2011,04,25,14,24,9.90
2011,04,25,14,25,9.90
2011,04,25,14,26,9.90
2011,04,25,14,27,9.80
2011,04,25,14,28,9.90
2011,04,25,14,29,9.90
2011,04,25,14,30,10.00
2011,04,25,14,31,10.00
2011,04,25,14,32,10.00
2011,04,25,14,33,10.10
2011,04,25,14,34,10.10
2011,04,25,14,35,10.20
2011,04,25,14,36,10.20
2011,04,25,14,37,10.20
2011,04,25,14,38,10.20
2011,04,25,14,39,10.30
2011,04,25,14,40,10.30
2011,04,25,14,41,10.30
2011,04,25,14,42,10.30
2011,04,25,14,43,10.20
2011,04,25,14,44,10.20
2011,04,25,14,45,10.30
2011,04,25,14,46,10.30
2011,04,25,14,47,10.30
2011,04,25,14,48,10.30
2011,04,25,14,49,10.30
2011,04,25,14,50,10.30
2011,04,25,14,51,10.30
2011,04,25,14,52,10.30
2011,04,25,14,53,10.40
2011,04,25,14,54,10.30
2011,04,25,14,55,10.30
2011,04,25,14,56,10.30
2011,04,25,14,57,10.30
2011,04,25,14,58,10.30
2011,04,25,14,59,10.30
2011,04,25,15,00,10.30
2011,04,25,15,01,10.30
2011,04,25,15,02,10.20
2011,04,25,15,03,10.20
2011,04,25,15,04,10.20
2011,04,25,15,05,10.20
2011,04,25,15,06,10.20
2011,04,25,15,07,10.20
2011,04,25,15,08,10.20
2011,04,25,15,09,10.20
2011,04,25,15,10,10.20
2011,04,25,15,11,10.20
2011,04,25,15,12,10.30
2011,04,25,15,13,10.30
2011,04,25,15,14,10.30
2011,04,25,15,15,10.40
2011,04,25,15,16,10.40
2011,04,25,15,17,10.50
2011,04,25,15,18,10.50
2011,04,25,15,19,10.60
2011,04,25,15,20,10.60
2011,04,25,15,21,10.60
2011,04,25,15,22,10.60
2011,04,25,15,23,10.50
2011,04,25,15,24,10.50
2011,04,25,15,25,10.50
2011,04,25,15,26,10.50
2011,04,25,15,27,10.50
2011,04,25,15,28,10.60
2011,04,25,15,29,10.60
2011,04,25,15,30,10.60
2011,04,25,15,31,10.60
2011,04,25,15,32,10.60
2011,04,25,15,33,10.60
2011,04,25,15,34,10.60
2011,04,25,15,35,10.50
2011,04,25,15,36,10.50
2011,04,25,15,37,10.50
2011,04,25,15,38,10.40
2011,04,25,15,39,10.40
2011,04,25,15,40,10.40
2011,04,25,15,41,10.50
2011,04,25,15,42,10.50
2011,04,25,15,43,10.50
2011,04,25,15,44,10.40
2011,04,25,15,45,10.40
2011,04,25,15,46,10.40
2011,04,25,15,47,10.40
2011,04,25,15,48,10.40
2011,04,25,15,49,10.50
2011,04,25,15,50,10.50
2011,04,25,15,51,10.50
2011,04,25,15,52,10.40
2011,04,25,15,53,10.40
2011,04,25,15,54,10.40
2011,04,25,15,55,10.30
2011,04,25,15,56,10.30
2011,04,25,15,57,10.30
2011,04,25,15,58,10.30
2011,04,25,15,59,10.20
2011,04,25,16,00,10.20
2011,04,25,16,01,10.20
2011,04,25,16,02,10.20
2011,04,25,16,03,10.20
2011,04,25,16,04,10.20
2011,04,25,16,05,10.20
2011,04,25,16,06,10.20
2011,04,25,16,07,10.20
2011,04,25,16,08,10.20
2011,04,25,16,09,10.20
2011,04,25,16,10,10.20
2011,04,25,16,11,10.30
2011,04,25,16,12,10.30
2011,04,25,16,13,10.30
2011,04,25,16,14,10.30
2011,04,25,16,15,10.30
2011,04,25,16,16,10.40
2011,04,25,16,17,10.40
2011,04,25,16,18,10.40
2011,04,25,16,19,10.40
2011,04,25,16,20,10.40
2011,04,25,16,21,10.40
2011,04,25,16,22,10.40
2011,04,25,16,23,10.30
2011,04,25,16,24,10.30
2011,04,25,16,25,10.30
2011,04,25,16,26,10.30
2011,04,25,16,27,10.30
2011,04,25,16,28,10.30
2011,04,25,16,29,10.30
2011,04,25,16,30,10.30
2011,04,25,16,31,10.30
2011,04,25,16,32,10.30
2011,04,25,16,33,10.30
2011,04,25,16,34,10.30
2011,04,25,16,35,10.30
2011,04,25,16,36,10.30
2011,04,25,16,37,10.30
2011,04,25,16,38,10.30
2011,04,25,16,39,10.30
2011,04,25,16,40,10.30
2011,04,25,16,41,10.30
2011,04,25,16,42,10.30
2011,04,25,16,43,10.30
2011,04,25,16,44,10.30
2011,04,25,16,45,10.30
2011,04,25,16,46,10.30
2011,04,25,16,47,10.30
2011,04,25,16,48,10.40
2011,04,25,16,49,10.40
2011,04,25,16,50,10.40
2011,04,25,16,51,10.40
2011,04,25,16,52,10.40
2011,04,25,16,53,10.40
2011,04,25,16,54,10.40
2011,04,25,16,55,10.40
2011,04,25,16,56,10.40
2011,04,25,16,57,10.30
2011,04,25,16,58,10.30
2011,04,25,16,59,10.20
2011,04,25,17,00,10.10
2011,04,25,17,01,10.00
2011,04,25,17,02,10.00
2011,04,25,17,03,9.90
2011,04,25,17,04,9.80
2011,04,25,17,05,9.80
2011,04,25,17,06,9.70
2011,04,25,17,07,9.70
2011,04,25,17,08,9.60
2011,04,25,17,09,9.60
2011,04,25,17,10,9.50
2011,04,25,17,11,9.50
2011,04,25,17,12,9.50
2011,04,25,17,13,9.40
2011,04,25,17,14,9.40
2011,04,25,17,15,9.40
2011,04,25,17,16,9.40
2011,04,25,17,17,9.30
2011,04,25,17,18,9.30
2011,04,25,17,19,9.30
2011,04,25,17,20,9.30
2011,04,25,17,21,9.30
2011,04,25,17,22,9.30
2011,04,25,17,23,9.30
2011,04,25,17,24,9.30
2011,04,25,17,25,9.30
2011,04,25,17,26,9.30
2011,04,25,17,27,9.30
2011,04,25,17,28,9.30
2011,04,25,17,29,9.30
2011,04,25,17,30,9.30
2011,04,25,17,31,9.30
2011,04,25,17,32,9.30
2011,04,25,17,33,9.40
2011,04,25,17,34,9.40
2011,04,25,17,35,9.40
2011,04,25,17,36,9.40
2011,04,25,17,37,9.40
2011,04,25,17,38,9.40
2011,04,25,17,39,9.40
2011,04,25,17,40,9.40
2011,04,25,17,41,9.40
2011,04,25,17,42,9.40
2011,04,25,17,43,9.40
2011,04,25,17,44,9.50
2011,04,25,17,45,9.50
2011,04,25,17,46,9.50
2011,04,25,17,47,9.60
2011,04,25,17,48,9.60
2011,04,25,17,49,9.60
2011,04,25,17,50,9.60
2011,04,25,17,51,9.60
2011,04,25,17,52,9.60
2011,04,25,17,53,9.60
2011,04,25,17,54,9.70
2011,04,25,17,55,9.70
2011,04,25,17,56,9.70
2011,04,25,17,57,9.70
2011,04,25,17,58,9.70
2011,04,25,17,59,9.70
2011,04,25,18,00,9.70
2011,04,25,18,01,9.70
2011,04,25,18,02,9.80
2011,04,25,18,03,9.80
2011,04,25,18,04,9.80
2011,04,25,18,05,9.90
2011,04,25,18,06,9.90
2011,04,25,18,07,10.00
2011,04,25,18,08,10.10
2011,04,25,18,09,10.10
2011,04,25,18,10,10.10
2011,04,25,18,11,10.10
2011,04,25,18,12,10.20
2011,04,25,18,13,10.20
2011,04,25,18,14,10.20
2011,04,25,18,15,10.20
2011,04,25,18,16,10.20
2011,04,25,18,17,10.20
2011,04,25,18,18,10.20
2011,04,25,18,19,10.20
2011,04,25,18,20,10.20
2011,04,25,18,21,10.30
2011,04,25,18,22,10.30
2011,04,25,18,23,10.30
2011,04,25,18,24,10.30
2011,04,25,18,25,10.30
2011,04,25,18,26,10.30
2011,04,25,18,27,10.30
2011,04,25,18,28,10.30
2011,04,25,18,29,10.30
2011,04,25,18,30,10.30
2011,04,25,18,31,10.30
2011,04,25,18,32,10.40
2011,04,25,18,33,10.40
2011,04,25,18,34,10.40
2011,04,25,18,35,10.40
2011,04,25,18,36,10.30
2011,04,25,18,37,10.30
2011,04,25,18,38,10.30
2011,04,25,18,39,10.30
2011,04,25,18,40,10.20
2011,04,25,18,41,10.20
2011,04,25,18,42,10.10
2011,04,25,18,43,10.10
2011,04,25,18,44,10.10
2011,04,25,18,45,10.10
2011,04,25,18,46,10.00
2011,04,25,18,47,10.00
2011,04,25,18,48,10.00
2011,04,25,18,49,10.00
2011,04,25,18,50,9.90
2011,04,25,18,51,9.90
2011,04,25,18,52,9.90
2011,04,25,18,53,9.90
2011,04,25,18,54,9.90
2011,04,25,18,55,9.90
2011,04,25,18,56,9.90
2011,04,25,18,57,9.90
2011,04,25,18,58,9.80
2011,04,25,18,59,9.80
2011,04,25,19,00,9.80
2011,04,25,19,01,9.80
2011,04,25,19,02,9.80
2011,04,25,19,03,9.90
2011,04,25,19,04,9.90
2011,04,25,19,05,9.90
2011,04,25,19,06,9.80
2011,04,25,19,07,9.90
2011,04,25,19,08,9.90
2011,04,25,19,09,9.90
2011,04,25,19,10,9.90
2011,04,25,19,11,9.80
2011,04,25,19,12,9.80
2011,04,25,19,13,9.80
2011,04,25,19,14,9.80
2011,04,25,19,15,9.80
2011,04,25,19,16,9.80
2011,04,25,19,17,9.70
2011,04,25,19,18,9.70
2011,04,25,19,19,9.60
2011,04,25,19,20,9.60
2011,04,25,19,21,9.60
2011,04,25,19,22,9.50
2011,04,25,19,23,9.50
2011,04,25,19,24,9.50
2011,04,25,19,25,9.40
2011,04,25,19,26,9.40
2011,04,25,19,27,9.40
2011,04,25,19,28,9.40
2011,04,25,19,29,9.40
2011,04,25,19,30,9.40
2011,04,25,19,31,9.40
2011,04,25,19,32,9.40
2011,04,25,19,33,9.40
2011,04,25,19,34,9.40
2011,04,25,19,35,9.40
2011,04,25,19,36,9.40
2011,04,25,19,37,9.40
